HULIANWANG DIGUI-28

Satellite information

Favourite Embed

Satellite Type and Status

PAYLOADIN ORBIT

Key statistics

Satellite HULIANWANG DIGUI-28 at a glance.

Uptime

229

Days in orbit

Revolutions

≈ 13.2

Per day

Orbit

LEO

Low Earth Orbit

Inclination

86.5

Latest

Satellite identification and parameters

Extended collection of information and parameters for HULIANWANG DIGUI-28.

Object identification

Identified? True

Debris? False

Object name: HULIANWANG DIGUI-28

International designator: 2025-086J

Object number (NORAD): 63695

Object ID (CCSDS): 63695

Country: PEOPLES REPUBLIC OF CHINA (PRC)

Current information (Y/N): Y

RCS size: LARGE

Orbital parameters

Period: 108.727 minutes

Inclination: 86.5018 deg

SMA: 7546.044 km

Apoapsis: 1169.399 km

Periapsis: 1166.418 km

RAAN: 15.9601 deg

Eccentricy: 0.00019756

Argument of periapsis: 85.1552 deg

Mean anomaly: 274.9807 deg

Mean motion: 13.24414125 rev/day

Mean motion (dot): 0.00000079 rev/day2

B* drag term: 0.00015045481 1/REarth

Two-line elements (TLE)

Creation date: Dec. 12, 2025, 10:14 a.m.

Reference frame: TEME

Reference center: EARTH

Epoch: Dec. 12, 2025, 6:17 a.m. UTC

TLE line 0: 0 HULIANWANG DIGUI-28

TLE line 1: 1 63695U 25086J 25346.26235718 .00000079 00000-0 15045-3 0 9998

TLE line 2: 2 63695 86.5018 15.9601 0001976 85.1552 274.9807 13.24414125 30119

Live tracking on map

Real-time ground track for satellite HULIANWANG DIGUI-28.

In-orbit conjunctions

There are no conjunctions computed for HULIANWANG DIGUI-28, at the moment. Check back to stay up to date, as we update our databases every day.

Go to all conjunctions

Associated space launch

A batch of 10 Low Earth Orbit communication satellites for the Chinese state owned SatNet constellation operated by the China Satellite Network Group. The constellation will eventually consists of 13000 satellites.

HULIANWANG DIGUI-28 was lifted into orbit during the mission ‘Long March 5B/YZ-2 | SatNet LEO Group 03’, on board a Long March 5B/YZ-2 space rocket.

The launch took place on April 28, 2025, 8:10 p.m. from 101.

For more information about the launch, click the button.

Launch to space Long March 5B/YZ-2 | SatNet LEO Group 03
Long March 5B/YZ-2 | SatNet LEO Group 03

Agency: N/A

Status: Launch Successful

Launch date: April 28, 2025, 8:10 p.m. UTC

Rocket: Long March 5B/YZ-2

Launch pad: 101

Location: Wenchang Space Launch Site, People's Republic of China

...

Latest news about this satellite

News about space launch
China launches third batch of Guowang megaconstellation satellites

China launched a third batch of Guowang megaconstellation satellites Tuesday, advancing its ambitious low Earth orbit communications network to rival Starlink and other global systems. The post China launches third batch of Guowang megaconstellation sate...


Newsletter sign-up

Weekly statistics, charts and insights to help you stay on top of the space industry.